Miscellaneous Local Product
Issued by NWS Hastings, NE

Home | Current Version | Previous Version | Text Only | Print | Product List | Glossary On
Versions: 1 2 3 4 5 6 7 8 9 10 11 12 13 14 15 16 17 18 19 20 21 22 23 24 25 26 27 28 29 30 31 32 33 34 35 36 37 38 39 40 41 42 43 44 45 46 47 48 49 50
000
AXUS43 KGID 240302
MISGRI

GID CWA HOURLY WEATHER ROUNDUP
NATIONAL WEATHER SERVICE HASTINGS NE
1000 PM CDT THU MAR 23 2017

NOTE: "FAIR" INDICATES FEW OR NO CLOUDS BELOW 12,000 FEET WITH NO
SIGNIFICANT WEATHER AND/OR OBSTRUCTIONS TO VISIBILITY.

...SOUTH CENTRAL NEBRASKA...

CITY           SKY/WX    TMP DP  RH WIND       PRES   REMARKS
GRAND ISLAND   CLOUDY    71  54  54 S33G45    29.52F
HASTINGS       CLOUDY    73  50  44 S26G39    29.59R
KEARNEY        CLOUDY    72  50  46 S39G67    29.56R
ORD            CLOUDY    53  48  83 N12       29.63R THUNDER
YORK           CLOUDY    70  54  56 S26G35    29.54F
AURORA         CLOUDY    70  52  52 S25G33    29.54S
LEXINGTON      CLOUDY    76  35  22 S30G43    29.48F HAZE
HOLDREGE       TSTM      60  52  73 SW31G54   29.73R
HEBRON         CLOUDY    71  52  51 SE21G26   29.64F

...NEBRASKA PANHANDLE...

CITY           SKY/WX    TMP DP  RH WIND       PRES   REMARKS
CHADRON        CLOUDY    44  41  89 N18G31    29.82S
ALLIANCE       CLOUDY    46  42  86 N23G33    29.76R
SCOTTSBLUFF    LGT RAIN  46  41  82 N25G32    29.79R
SIDNEY         LGT RAIN  50  42  74 N31G41    29.69R

...WESTERN AND NORTH CENTRAL NEBRASKA...

CITY           SKY/WX    TMP DP  RH WIND       PRES   REMARKS
VALENTINE      CLOUDY    53  43  68 N17G30    29.74R
AINSWORTH      CLOUDY    53  50  91 N9        29.68R
ONEILL         CLOUDY    54  54  99 NE12      29.70R
BROKEN BOW     TSTM      57  31  37 MISG      29.58F
IMPERIAL       PTCLDY    65  43  44 E12       29.49S
NORTH PLATTE   TSTM      60  57  89 VRB7G22   29.62R FOG
MCCOOK         CLOUDY    67  46  47 S26G37    29.54R

...EASTERN NEBRASKA...

CITY           SKY/WX    TMP DP  RH WIND       PRES   REMARKS
NORFOLK        CLOUDY    59  50  72 SE10      29.60S
SO SIOUX CITY  CLOUDY    55  44  66 E10       29.64F
TEKAMAH        CLOUDY    60  49  66 NW8       29.65R
COLUMBUS       MOCLDY    66  54  63 SE10      29.59S
ALBION         CLOUDY    62  54  73 S3        29.63R
OMAHA EPPLEY   CLOUDY    73  50  44 S26G33    29.65R
OFFUTT AFB     CLOUDY    72  50  44 SE18      29.65F
MILLARD        CLOUDY    74  53  48 SE15G25   29.64S
LINCOLN        LGT RAIN  71  51  49 SE36G46   29.58F
NEBRASKA CITY  CLOUDY    70  40  33 S21G30    29.71R
BEATRICE       MOCLDY    70  51  49 S14G20    29.67S
FALLS CITY     CLOUDY    71  47  42 S18G28    29.71R

...NORTHERN KANSAS...

CITY           SKY/WX    TMP DP  RH WIND       PRES   REMARKS
GOODLAND       CLOUDY    68  41  37 S31G44    29.57R
HILL CITY      LGT RAIN  64  53  67 S9        29.61F
NORTON         MOCLDY    59  46  63 SE7G18    29.58F
PHILLIPSBURG   PTCLDY    61  54  77 NW5       29.65F
HAYS             N/A     71  48  43 S15       29.62R
RUSSELL        MOCLDY    74  47  38 S20G30    29.64R
CONCORDIA      CLOUDY    72  52  49 S16       29.65R
SALINA         MOCLDY    76  47  35 S30G38    29.63F
TOPEKA         CLOUDY    70  49  47 SE18G24   29.74S



USA.gov is the U.S. government's official web portal to all federal, state and local government web resources and services.